ALESUND / VIGRA current weather conditions

sailwx.info

Wind from 210 at 2 knots

Air temperature 2.0° C
Visibility: greater than 5.4 NM
Dewpoint 1.0° C

Last reported at 2015-Jan-29 04:20 UTC.
Time now 2015-Jan-29 06:20 UTC

Location: N 62°34' E 006°07'.
View on Google Maps.

See reports from other nearby stations

  
Tides and Currents Weather Stations Pressure Air Temp Water Temp Dewpoint Dewpoint Depression Visibility Wind Speed Wind Dir Waves Ship Positions
date/time (UTC)wind fromknots sea level pressurealtimeterstation pressurevisibilityair tempwater tempwave heightnotes
2015-Jan-29 04:20 210 2 5.4 2.0
2015-Jan-29 03:50 260 3 5.4 3.0
2015-Jan-29 03:20 260 4 5.4 3.0
2015-Jan-29 02:50 260 7 5.4 3.0
2015-Jan-29 02:20 250 6 5.4 3.0 Light drizzle.
2015-Jan-29 01:50 250 6 5.4 3.0 Drizzle.
2015-Jan-29 01:20 260 6 4.9 3.0 Light rain.
2015-Jan-29 00:50 140 6 5.4 4.0 Light rain.
2015-Jan-29 00:20 140 6 5.4 4.0 Light rain.
2015-Jan-28 23:50 130 7 5.4 4.0 Light rain.
2015-Jan-28 23:20 5.4 4.0 Light rain.
2015-Jan-28 22:50 130 1 5.4 4.0 Rain showers.
2015-Jan-28 22:20 170 2 5.4 4.0 Rain showers.
2015-Jan-28 21:50 170 3 5.4 5.0 Rain showers.
2015-Jan-28 21:20 100 4 5.4 5.0 Rain showers.
2015-Jan-28 20:50 050 5 5.4 5.0 Light rain.
2015-Jan-28 20:20 060 6 5.4 4.0
2015-Jan-28 19:50 110 3 5.4 5.0 Light rain.
2015-Jan-28 19:20 090 3 5.4 5.0 Light drizzle.
2015-Jan-28 18:50 110 4 5.4 5.0 Light drizzle.
2015-Jan-28 18:20 150 4 5.4 5.0 Light rain.
2015-Jan-28 17:50 180 3 5.4 5.0 Light rain.
2015-Jan-28 17:20 150 4 5.4 6.0
2015-Jan-28 16:50 140 6 5.4 6.0
2015-Jan-28 16:20 150 8 5.4 6.0 Light rain.
2015-Jan-28 15:50 150 7 5.4 6.0 Light rain.
2015-Jan-28 15:20 180 8 5.4 7.0 Light rain.
2015-Jan-28 14:50 190 4 5.4 7.0 Light rain.
2015-Jan-28 14:20 230 6 5.4 7.0
2015-Jan-28 13:50 240 6 5.4 7.0
2015-Jan-28 12:50 190 9 5.4 7.0
2015-Jan-28 12:20 190 10 5.4 7.0
2015-Jan-28 11:50 190 9 5.4 8.0
2015-Jan-28 11:20 190 9 5.4 7.0
2015-Jan-28 10:50 200 8 5.4 7.0
2015-Jan-28 10:20 210 10 5.4 7.0
2015-Jan-28 09:50 220 8 5.4 7.0
2015-Jan-28 09:20 210 12 5.4 7.0
2015-Jan-28 08:20 210 14 5.4 7.0
2015-Jan-28 07:20 210 12 5.4 7.0
2015-Jan-28 06:50 200 13 5.4 7.0
2015-Jan-28 06:20 200 12 5.4 7.0
2015-Jan-28 05:50 190 12 5.4 7.0
2015-Jan-28 05:20 190 11 5.4 7.0
2015-Jan-28 04:50 190 9 5.4 7.0 Light drizzle.
2015-Jan-28 04:20 200 11 5.4 7.0 Light drizzle.
2015-Jan-28 03:50 190 14 5.4 6.0
2015-Jan-28 03:20 190 12 5.4 6.0 Drizzle.
2015-Jan-28 02:50 190 14 5.4 6.0 Light rain.
2015-Jan-28 02:20 190 15 4.3 6.0 Light rain.
2015-Jan-28 01:50 190 15 3.8 6.0 Rain.
2015-Jan-28 01:20 190 16 5.4 6.0 Light rain.
2015-Jan-28 00:50 190 15 5.4 6.0 Light rain.
2015-Jan-28 00:20 190 15 4.3 7.0 Light rain.
2015-Jan-27 23:50 200 14 3.8 6.0 Rain.
2015-Jan-27 23:20 210 17 2.6 7.0 Rain.
2015-Jan-27 22:50 220 20 3.8 7.0 Light rain.
2015-Jan-27 22:20 220 22 2.7 7.0 Light rain.
2015-Jan-27 21:50 220 22 4.3 6.0 Rain drizzle.
2015-Jan-27 21:20 220 18 5.4 7.0 Light rain.
2015-Jan-27 20:50 220 19 4.9 7.0 Rain showers.
2015-Jan-27 20:20 220 16 4.9 7.0 Rain showers.
2015-Jan-27 19:50 210 20 gusting 31 5.4 7.0 Rain showers.
2015-Jan-27 18:50 220 20 5.4 7.0 Rain showers.
2015-Jan-27 18:20 220 17 5.4 7.0 Rain showers.
2015-Jan-27 17:50 230 22 5.4 7.0 Rain showers.
2015-Jan-27 17:20 230 20 5.4 8.0
2015-Jan-27 16:50 230 24 5.4 8.0
2015-Jan-27 15:50 220 17 3.8 7.0 Rain showers.
2015-Jan-27 15:20 200 15 3.8 6.0 Rain showers.
2015-Jan-27 14:50 200 17 5.4 6.0 Light rain.
2015-Jan-27 14:20 200 17 4.9 5.0 Light rain.
2015-Jan-27 13:50 200 18 5.4 6.0 Light drizzle.
2015-Jan-27 13:20 200 16 gusting 26 5.4 6.0 Light rain.
2015-Jan-27 12:50 200 15 4.9 6.0 Light drizzle.
2015-Jan-27 12:20 200 17 5.4 5.0
2015-Jan-27 11:50 200 15 5.4 5.0 Light drizzle.
2015-Jan-27 11:20 200 15 5.4 5.0 Light drizzle.
2015-Jan-27 10:50 200 14 5.4 6.0 Light drizzle.
2015-Jan-27 09:50 210 14 5.4 5.0 Light drizzle.
2015-Jan-27 09:20 210 15 5.4 5.0 Light drizzle.
2015-Jan-27 08:50 220 18 5.4 5.0
2015-Jan-27 08:20 250 20 4.9 5.0 Light drizzle.
2015-Jan-27 07:50 260 18 5.4 5.0
2015-Jan-27 07:20 260 13 5.4 5.0
2015-Jan-27 06:50 200 12 1.6 3.0 Rain snow.
2015-Jan-27 06:20 200 14 5.4 3.0 Light drizzle.